Location: Wien
(48.2082°N, 16.3738°E)
Time: 22:03:33
(UTC+02:00)

MOZHAYETS 4 - Pass Details

Date: 27 March 2019
Orbit: 663 x 679 km, 98.0° (Epoch: 21 April)

Event Time Altitude Azimuth Distance (km) Brightness Sun altitude
Exits shadow 01:22:08 20° 9° (N) 1,539 10.1 -36.3°
Drops below altitude 10° 01:23:43 10° 359° (N) 2,116 10.9 -36.2°
Sets 01:26:03 0° 353° (N) 3,037 11.8 -36.0°
